Location: Jackson Park
(37.2862°N, 79.9123°W)
Time: 21:51:41
(UTC+00:00)

Transit 4A - Pass Details

Date: 17 May 2026
Orbit: 860 x 980 km, 66.8° (Epoch: 9 June)

Event Time Altitude Azimuth Distance (km) Brightness Sun altitude
Rises 12:20:38 0° 202° (SSW) 3,516 10.7 24.2°
Reaches altitude 10° 12:23:06 10° 200° (SSW) 2,595 10.1 24.7°
Maximum altitude 12:29:08 78° 116° (ESE) 959 8.7 25.9°
Drops below altitude 10° 12:35:25 10° 30° (NNE) 2,692 10.9 27.1°
Sets 12:38:00 0° 30° (NNE) 3,655 11.4 27.6°
